Regional Weather Roundup
Issued by NWS Northern Indiana

Home | Current Version | Previous Version | Text Only | Print | Product List | Glossary On
Versions: 1 2 3 4 5 6 7 8 9 10 11 12 13 14 15 16 17 18 19 20 21 22 23 24 25 26 27 28 29 30 31 32 33 34 35 36 37 38 39 40 41 42 43 44 45 46 47 48 49 50
621
ASUS43 KIWX 180200
RWRIWX

KIWX WEATHER ROUNDUP
NATIONAL WEATHER SERVICE NORTHERN INDIANA
900 PM EST FRI NOV 17 2017

NOTE: "FAIR" INDICATES FEW OR NO CLOUDS BELOW 12,000 FEET WITH NO
SIGNIFICANT WEATHER AND/OR OBSTRUCTIONS TO VISIBILITY.

* THESE STATIONS ARE NOT UNDER NWS QUALITY CONTROL. THEY ALSO MAY NOT
  REPORT WEATHER SUCH AS PRECIPITATION OR FOG.

INZ001>027-180300-
NORTHERN INDIANA

CITY           SKY/WX    TMP DP  RH WIND       PRES   REMARKS
GARY*          CLOUDY    43  41  93 S6        29.66F FOG
MICHIGAN CITY* LGT RAIN  41  41 100 S9        29.67F
LAPORTE*       RAIN      41  38  90 S7        29.68F
KNOX*          CLOUDY    45  36  70 W8        29.70S
SOUTH BEND     TSTM      41  41 100 SE14      29.68F FOG
ELKHART*       TSTM      43  37  81 SE9       29.70F
GOSHEN         LGT RAIN  44  34  67 SE15G24   29.69F
MONTICELLO*    CLOUDY    46  32  58 S9G17     29.67F
WARSAW*        CLOUDY    43  34  70 SE8G20    29.71F
AUBURN*        CLOUDY    45  32  61 SE7       29.78F
FORT WAYNE     CLOUDY    46  35  65 S13       29.77F

$$
INZ028>050-180300-
CENTRAL INDIANA

CITY           SKY/WX    TMP DP  RH WIND       PRES   REMARKS
LAFAYETTE      LGT RAIN  45  37  73 S10G22    29.70F
KOKOMO*        CLOUDY    46  34  62 S21G29    29.72F
MUNCIE*        CLOUDY    48  32  53 S14G23    29.78F
INDIANAPOLIS   CLOUDY    47  34  60 S14       29.77F

$$
MIZ043>046-050>051-056>058-064>065-071>073-077>080-180300-
SOUTHWEST LOWER MICHIGAN

CITY           SKY/WX    TMP DP  RH WIND       PRES   REMARKS
BATTLE CREEK   CLOUDY    44  34  67 S17G23    29.71F
BENTON HARBOR  TSTM      42  38  85 SE18G26   29.65F FOG
COLDWATER*     LGT RAIN  44  32  62 S15G24    29.73F
HILLSDALE*     CLOUDY    41  32  70 S14G20    29.77F
HOLLAND        LGT RAIN  42  37  82 S17       29.65F
GRAND RAPIDS   TSTM      41  39  93 S15       29.68F FOG
KALAMAZOO      TSTM      43  34  70 S10       29.71F
THREE RIVERS*  HVY RAIN  44  36  75 S12G23    29.72F

$$
OHZ001>008-015>018-024>025-180300-
NORTHWEST OHIO

CITY           SKY/WX    TMP DP  RH WIND       PRES   REMARKS
DEFIANCE       CLOUDY    45  32  60 S10G22    29.81F
FINDLAY        CLOUDY    45  31  58 S21G30    29.84F
TOLEDO EXPRESS LGT RAIN  44  35  70 S10G18    29.82F
TOLEDO METCALF CLOUDY    44  33  65 S14       29.84F
LIMA           CLOUDY    44  33  65 S20       29.84F

$$
AND FOR LAKE MICHIGAN COASTAL AND OPEN LAKE BUOY OBSERVATIONS

STATION/POSITION TEMP    WIND        PRES    VSBY  WAVE
                 AIR SEA DIR/SP/G                  HT/PER
                 (F)     (DEG/KT/KT) (MB)    (MI)  (FT/S)
MICHIGAN CITY     42     150/ 19/ 22   N/A
BURNS HARBOR      43     170/ 14/ 21 1004.7F
SAINT JOSEPH      42     190/  6/ 12 1005.8
SOUTH LAKE BUOY   47 50  150/ 25/ 29 1004.3          7/ 6

$$
&&




USA.gov is the U.S. government's official web portal to all federal, state and local government web resources and services.